Total_Precipitation_Accumulation
0.84 0.84 0.87 0.82 0.79 0.77 0.79 0.95 1.21 1.04 0.58 0.36 0.34 0.38 0.51 0.64 0.77 0.80 0.78 0.86 0.87 0.87 0.95 1.03 1.08 1.13 1.29 1.65 2.39 3.31 4.05 4.26 3.99 3.45 3.18 3.42 3.78 4.27
0.91 0.90 0.90 0.87 0.85 0.83 0.83 0.85 1.00 1.17 0.88 0.40 0.35 0.37 0.48 0.61 0.74 0.75 0.74 0.86 0.88 0.90 0.89 0.92 1.01 1.13 1.23 1.39 1.72 2.44 3.25 3.92 4.21 4.20 3.99 3.90 4.08 4.38
1.06 1.05 0.98 0.93 0.97 0.93 0.91 0.91 0.92 1.06 1.07 0.52 0.36 0.40 0.54 0.67 0.72 0.72 0.71 0.74 0.76 0.86 0.90 0.90 0.92 1.01 1.14 1.28 1.44 1.82 2.50 3.19 3.81 4.24 4.50 4.47 4.41 4.42
1.18 1.15 1.10 1.08 1.06 1.02 1.05 1.02 0.95 0.94 1.07 0.83 0.50 0.47 0.54 0.63 0.70 0.77 0.78 0.77 0.75 0.83 0.87 0.94 0.98 1.00 1.06 1.17 1.31 1.46 1.83 2.38 3.01 3.61 4.04 4.19 4.27 4.50
1.26 1.28 1.23 1.23 1.21 1.15 1.15 1.15 1.09 1.01 1.03 1.03 0.72 0.56 0.59 0.67 0.79 0.85 0.88 0.92 0.90 0.93 0.93 0.95 1.03 1.08 1.09 1.14 1.26 1.37 1.46 1.71 2.15 2.84 3.53 3.84 3.89 4.02
1.31 1.33 1.35 1.37 1.36 1.37 1.43 1.41 1.39 1.38 1.30 1.24 1.02 0.80 0.76 0.78 0.91 0.96 0.96 0.96 1.00 0.97 1.02 0.98 1.00 1.06 1.08 1.07 1.09 1.15 1.30 1.61 1.95 2.34 2.91 3.37 3.49 3.53
1.38 1.36 1.36 1.46 1.60 1.76 1.89 1.81 1.71 1.75 1.68 1.60 1.39 1.15 1.00 1.01 1.10 1.05 1.09 1.03 1.06 1.06 1.04 0.98 0.93 0.88 0.93 1.05 1.13 1.18 1.25 1.43 1.69 2.03 2.46 2.93 3.25 3.33
1.36 1.31 1.31 1.38 1.44 1.57 1.75 1.77 1.76 1.90 1.98 1.88 1.69 1.46 1.15 1.06 1.17 1.33 1.43 1.47 1.38 1.15 1.14 1.14 1.06 1.02 0.97 0.98 1.15 1.21 1.30 1.46 1.60 1.79 2.15 2.51 2.89 3.25
1.16 1.14 1.14 1.20 1.32 1.23 1.36 1.44 1.48 1.59 1.75 1.87 1.91 1.59 1.35 1.25 1.50 1.71 1.71 1.69 1.41 1.20 1.35 1.49 1.35 1.27 1.15 1.16 1.27 1.22 1.29 1.42 1.57 1.70 1.86 2.15 2.51 2.93
1.08 1.06 1.04 1.04 1.13 1.31 1.35 1.31 1.20 1.20 1.39 1.57 1.74 1.62 1.51 1.58 1.89 2.16 2.22 2.23 1.91 1.55 1.49 1.73 1.55 1.48 1.40 1.34 1.36 1.26 1.27 1.32 1.42 1.58 1.76 1.95 2.18 2.52
1.12 1.13 1.14 1.05 1.22 1.46 1.47 1.40 1.21 1.10 1.19 1.43 1.64 1.75 1.85 2.02 2.28 2.62 2.74 2.82 2.62 2.13 1.81 1.83 1.70 1.62 1.62 1.57 1.52 1.45 1.34 1.32 1.33 1.42 1.59 1.79 2.03 2.31
1.17 1.20 1.37 1.33 1.37 1.46 1.46 1.52 1.49 1.20 1.06 1.13 1.23 1.35 1.44 1.63 2.00 2.23 2.44 2.70 2.65 2.48 2.02 1.94 1.93 1.91 2.09 1.76 1.52 1.41 1.35 1.38 1.35 1.30 1.36 1.52 1.79 1.98
1.31 1.31 1.34 1.48 1.43 1.45 1.49 1.49 1.54 1.41 1.26 1.26 1.23 1.21 1.29 1.44 1.63 1.87 2.15 2.45 2.64 2.47 1.99 2.16 2.35 2.20 2.22 1.96 1.61 1.43 1.33 1.28 1.22 1.22 1.27 1.36 1.56 1.76
1.35 1.20 1.27 1.47 1.44 1.46 1.43 1.49 1.58 1.55 1.43 1.39 1.29 1.18 1.19 1.32 1.42 1.63 1.95 2.13 2.24 2.25 2.00 2.23 2.63 2.37 2.34 2.08 1.78 1.61 1.47 1.39 1.26 1.16 1.11 1.30 1.44 1.62
1.39 1.47 1.40 1.44 1.43 1.33 1.32 1.40 1.43 1.38 1.46 1.45 1.29 1.12 1.05 1.16 1.30 1.49 1.75 1.99 2.10 2.11 2.08 2.10 2.34 2.37 2.43 2.29 1.84 1.62 1.64 1.62 1.41 1.27 1.17 1.12 1.16 1.33
1.42 1.50 1.48 1.38 1.35 1.32 1.31 1.29 1.24 1.32 1.41 1.36 1.21 1.10 1.08 1.18 1.34 1.47 1.67 1.88 2.14 2.14 2.07 2.12 2.30 2.57 2.59 2.14 1.90 1.74 1.60 1.72 1.59 1.40 1.27 1.19 1.14 1.15
1.62 1.58 1.51 1.44 1.44 1.35 1.26 1.22 1.22 1.30 1.37 1.26 1.22 1.23 1.25 1.29 1.35 1.40 1.57 1.74 1.96 1.93 1.94 2.10 2.30 2.49 2.59 2.44 2.22 1.85 1.63 1.57 1.53 1.47 1.41 1.36 1.30 1.24
1.61 1.57 1.41 1.29 1.27 1.24 1.24 1.23 1.18 1.16 1.17 1.21 1.25 1.26 1.28 1.30 1.34 1.35 1.46 1.63 1.75 1.73 1.77 1.92 2.18 2.44 2.64 2.75 2.45 2.00 1.72 1.62 1.58 1.54 1.45 1.44 1.44 1.39
1.32 1.24 1.17 1.14 1.14 1.14 1.14 1.14 1.11 1.03 1.07 1.18 1.24 1.24 1.26 1.30 1.33 1.35 1.39 1.50 1.59 1.62 1.70 1.82 2.05 2.33 2.39 2.36 2.45 2.14 1.89 1.76 1.67 1.68 1.59 1.44 1.44 1.44
1.09 1.07 1.08 1.07 1.09 1.13 1.10 1.08 1.06 1.04 1.09 1.14 1.19 1.20 1.25 1.31 1.31 1.28 1.29 1.40 1.48 1.53 1.59 1.69 1.90 2.19 2.39 2.22 2.22 2.19 2.12 1.93 1.76 1.75 1.69 1.57 1.52 1.57
0.98 0.97 0.98 1.04 1.06 1.05 1.03 1.02 1.03 1.03 1.02 1.07 1.11 1.15 1.19 1.27 1.27 1.18 1.20 1.29 1.40 1.44 1.48 1.46 1.57 1.87 2.18 2.25 2.16 2.01 2.08 2.18 1.97 1.83 1.77 1.78 1.76 1.72
0.88 0.91 0.91 0.95 1.02 1.06 1.03 1.01 1.01 0.98 0.98 1.02 1.04 1.05 1.09 1.17 1.20 1.15 1.19 1.26 1.27 1.29 1.35 1.36 1.41 1.67 2.06 2.30 2.18 1.95 1.95 2.12 2.28 2.10 1.87 1.83 2.01 2.12
0.91 0.90 0.89 0.90 0.95 1.00 1.04 1.03 1.00 0.92 0.91 0.96 0.99 0.98 1.01 1.08 1.07 1.11 1.14 1.17 1.22 1.23 1.29 1.38 1.42 1.58 1.87 2.05 2.16 2.07 1.93 1.93 2.02 2.13 2.23 1.97 1.65 1.59